CZ-6A DEB, 54346

Orbit data source: Space-Track

CZ-6A DEB, 54346 is space debris in SSO originally from a launch on Fri, 11 Nov 2022 UTC launched from the Taiyaun Space Center, China (TSC). Debris objects in space refer to the collection of defunct objects orbiting the Earth. Examples of debris include non-operational satellites, rocket bodies, and fragments generated from explosions, collisions, or faulty payload assembly.

Loading next visibility...
Identifier
54346, 2022-151CR
Orbit
SSO
Country
Flag of CNCN / PRC
Related business
Manufacturer
SAST
Mission
Spacecraft
Bus & Motor
Unknown
Mass
Unknown
Launch date (UTC)
2022-11-11 (4 years ago)
Launch vehicle
Unknown
Launch site
Taiyaun Space Center, China (TSC)
Object type
Payload
Rocket body
Debris
Shape & HBR
Unknown shape, 0.2 m
Radar Cross Section
Medium (>0.1 m² and <1 m²)

Expand to show TLE details & history
Last TLE update: 10 hours ago

TLE from 10 hours ago
0 CZ-6A DEB
1 54346U 22151CR  26236.25398310  .00184455  00000-0  48104-2 0  9999
2 54346  98.5445 350.5679 0031963 228.4524 131.3975 15.37589486203182
Epoch: 2026-08-24T06:05Z
TLE epoch observation values (Epoch: 2026-08-24T06:05:44.139Z)
Latitude
-0.00008°
Longitude
-73.40433°
Altitude
470.8 km
Speed
7.623 km/s
True Right ascension
23h 22m 16s
True Declination
0° 00' 00"
Sunlit
Object was in full shadow at epoch
Visualization orbit readout
Latitude
Unknown
Longitude
Unknown
Altitude
Unknown
Speed
Unknown
Apparent Right ascension
Unknown
Apparent Declination
Unknown
Sunlit
N/A
Visualization observer readout
Local Sidereal Time
07:23:49
Azimuth
Unknown
Elevation
Unknown
Doppler factor
Unknown
Orbital elements
Apogee altitude
472.06 km
Perigee altitude
428.409 km
Semi-major axis
6,828.372 km
Eccentricity
0.0032
Inclination
98.5445°
RAAN
350.5679°
Arg. of periapsis
228.4524°
True anomaly
131.67153°
Mean anomaly
131.3975°
Eccentric anomaly
131.53459°
Mean motion
3.84651 °/min
Orbital period
93.59 mins
BSTAR
0.0048104
Loading maneuver chart data...
Computing Atmospheric mass density...
Loading historical data...
Loading historical data...
Loading historical data...
Loading historical data...
Loading historical data...
Loading historical data...
Loading historical data...

Documentation

Showing up to 5 results
|